[[{"header":{"parameterUnit":"m.s-1","parameterCategory":1,"la1":30.2991,"la2":30.254,"lo1":-89.0895,"lo2":-89.0444,"dy":0.0017,"dx":0.0017,"nx":28,"ny":28,"refTime":"2023-10-13T09:00:00:Z","depth":0,"parameterNumber":2,"parameterNumberName":"U-component_of_WINDS"},"data":[0,0,0,0,0,0,0,0,0,0,0,0,0,0,0,0,0,0,0,0,0,0,0,0,0,0,0,0,0,0,0,0,0,0,0,0,0,0,0,0,0,0,0,0,0,0,0,0,0,0,0,0,0,0,0,0,0,0,-1.8065,-1.8065,0,-1.8089,-1.8089,-1.8089,-1.8017,-1.8015,-1.8013,-1.8011,-1.8036,-1.8039,-1.8041,0,0,0,0,0,0,0,0,0,0,0,0,0,-1.7957,-1.796,-1.8065,-1.8065,-1.8066,-1.8089,-1.8089,-1.8089,-1.8018,-1.8015,-1.8012,-1.801,-1.8035,-1.8038,-1.8042,0,0,0,0,0,0,0,0,0,0,0,0,0,-1.7995,-1.796,-1.8065,-1.8033,-1.803,-1.8089,-1.8089,-1.8089,-1.8018,-1.8015,-1.8012,-1.8008,-1.8034,-1.8038,-1.8042,-1.8133,0,0,-1.8054,-1.8056,0,0,0,0,0,0,0,0,-1.7993,-1.7999,-1.8037,-1.8035,-1.8032,-1.8047,-1.806,-1.8104,-1.8019,-1.8023,-1.8011,-1.8007,-1.8042,-1.8045,-1.8057,-1.8135,-1.8136,-1.8055,-1.8057,-1.8059,-1.806,0,0,0,0,0,0,0,-1.799,-1.7997,-1.8074,-1.8038,-1.8035,-1.8017,-1.8018,-1.8068,-1.8051,-1.8022,-1.8017,-1.8021,-1.804,-1.8053,-1.8057,-1.8136,-1.8055,-1.8058,-1.8061,-1.8062,-1.8288,-1.8292,0,0,0,0,0,0,-1.7992,-1.7996,-1.8074,-1.8075,-1.8004,-1.8021,-1.8023,-1.8045,-1.805,-1.8047,-1.8023,-1.8017,-1.8048,-1.8053,-1.8058,-1.8165,-1.8059,-1.8063,-1.8065,-1.8285,-1.8289,-1.8293,0,0,0,0,0,0,-1.799,-1.7999,-1.8073,-1.8034,-1.8042,-1.8027,-1.8052,-1.8047,-1.8061,-1.8051,-1.8048,-1.804,-1.8046,-1.8052,-1.8115,-1.8164,-1.8065,-1.8068,-1.8281,-1.8286,-1.8291,-1.8379,0,0,0,0,0,0,-1.7987,-1.7999,-1.8034,-1.8035,-1.8044,-1.813,-1.8055,-1.805,-1.8068,-1.806,-1.8066,-1.8064,-1.8044,-1.8109,-1.8119,-1.8168,-1.8072,-1.8276,-1.8283,-1.8289,-1.8372,-1.8387,-1.84,0,0,0,0,0,-1.7983,-1.8059,-1.8036,-1.8046,-1.8088,-1.8133,-1.8138,-1.8113,-1.8072,-1.8107,-1.81,-1.8063,-1.8157,-1.8116,-1.8127,-1.8178,-1.8273,-1.8281,-1.8289,-1.8366,-1.8384,-1.84,0,0,0,0,0,0,-1.8064,-1.8058,-1.8033,-1.8111,-1.8123,-1.812,-1.8164,-1.8133,-1.8157,-1.8149,-1.8117,-1.8119,-1.8188,-1.8189,-1.8143,-1.8266,-1.8208,-1.8218,-1.8263,-1.828,-1.8294,-1.8293,-1.8075,0,0,0,0,0,-1.8091,-1.8128,-1.8121,-1.819,-1.8197,-1.818,-1.8198,-1.8178,-1.8189,-1.8194,-1.8192,-1.8204,-1.8236,-1.8258,-1.8287,-1.8371,-1.8371,-1.8412,-1.8426,-1.8437,-1.8447,-1.849,-1.8508,-1.8319,-1.8319,-1.8319,0,0,-1.8147,-1.8148,-1.8174,-1.8206,-1.8213,-1.8252,-1.8184,-1.8229,-1.8257,-1.8201,-1.826,-1.8259,-1.827,-1.8344,-1.8376,-1.8347,-1.8499,-1.8447,-1.8457,-1.846,-1.8501,-1.8518,-1.8534,-1.8324,-1.8323,-1.8323,0,0,-1.8269,-1.8274,-1.8331,-1.8339,-1.835,-1.8337,-1.8351,-1.8353,-1.835,-1.8408,-1.8366,-1.84,-1.8456,-1.8465,-1.8478,-1.8601,-1.8568,-1.8612,-1.8685,-1.8728,-1.8743,-1.8756,-1.88,-1.8816,-1.8621,-1.8621,-1.8621,0,-1.8337,-1.8394,-1.8365,-1.8412,-1.8427,-1.8377,-1.8435,-1.8444,-1.8464,-1.8475,-1.8442,-1.851,-1.8515,-1.8589,-1.8619,-1.8631,-1.8646,-1.8611,-1.8743,-1.8756,-1.8768,-1.8809,-1.8826,-1.8626,-1.8626,-1.8625,-1.8625,0,-1.8478,-1.8518,-1.8563,-1.8583,-1.8603,-1.8655,-1.8634,-1.8658,-1.8635,-1.8626,-1.8685,-1.8688,-1.8717,-1.8733,-1.8712,-1.8804,-1.8786,-1.8748,-1.869,-1.8791,-1.883,-1.8845,-1.8634,-1.8632,-1.8631,-1.8629,0,0,-1.8653,-1.8654,-1.8671,-1.8679,-1.8686,-1.8717,-1.8766,-1.8793,-1.8814,-1.8829,-1.887,-1.8918,-1.8883,-1.8897,-1.8876,-1.8913,-1.901,-1.8871,-1.8871,-1.8897,-1.9112,-1.9141,-1.9159,-1.8988,-1.8991,-1.8993,-1.9111,0,-1.8772,-1.8857,-1.8831,-1.8917,-1.8953,-1.8905,-1.8947,-1.8957,-1.8949,-1.8978,-1.897,-1.9004,-1.8955,-1.8963,-1.8998,-1.8991,-1.9053,-1.8982,-1.9025,-1.9027,-1.9025,-1.918,-1.921,-1.9321,-1.9126,-1.9129,-1.913,0,-1.8924,-1.8944,-1.9033,-1.9033,-1.9047,-1.9086,-1.9108,-1.9137,-1.9146,-1.9137,-1.9152,-1.9123,-1.9171,-1.9112,-1.9177,-1.9129,-1.9145,-1.9144,-1.9148,-1.9151,-1.9086,-1.9187,-1.9356,-1.9373,-1.9154,-1.9152,-1.915,0,-1.9043,-1.9092,-1.9151,-1.9159,-1.9161,-1.9189,-1.9191,-1.9196,-1.9214,-1.9233,-1.9244,-1.9269,-1.9282,-1.9302,-1.928,-1.9239,-1.9349,-1.9288,-1.9343,-1.9344,-1.9369,-1.9368,-1.9543,-1.9379,-1.9379,-1.9379,-1.9378,0,-1.918,-1.9236,-1.9204,-1.9241,-1.9302,-1.9271,-1.9333,-1.9329,-1.9334,-1.9369,-1.9328,-1.9361,-1.933,-1.9361,-1.9344,-1.94,-1.9407,-1.9401,-1.9396,-1.9405,-1.9406,-1.9416,-1.9407,-1.9383,-1.9382,-1.9381,-1.9381,0,-1.9323,-1.9304,-1.9365,-1.9361,-1.9361,-1.9406,-1.9403,-1.9436,-1.9425,-1.9469,-1.9478,-1.946,-1.9494,-1.9473,-1.9508,-1.9496,-1.957,-1.9554,-1.9567,-1.9563,-1.962,-1.9615,-1.9808,-1.9831,-1.9652,-1.9654,-1.9655,0,-1.9412,-1.9454,-1.9453,-1.9473,-1.9478,-1.9511,-1.9528,-1.9499,-1.9519,-1.9531,-1.9563,-1.9592,-1.9615,-1.9671,-1.9661,-1.9687,-1.9672,-1.9737,-1.9675,-1.9683,-1.9672,-1.967,-1.9674,-1.975,-1.9752,-1.9754,-1.9755,0,-1.9571,-1.9559,-1.9586,-1.9609,-1.963,-1.9647,-1.966,-1.9679,-1.965,-1.9674,-1.9707,-1.9724,-1.9759,-1.9789,-1.981,-1.9812,-1.9779,-1.9775,-1.9789,-1.9799,-1.9805,-1.9802,-1.9602,-1.9771,-1.9769,-1.9768,-1.9767,-1.9767,-1.969,-1.9725,-1.9729,-1.976,-1.9766,-1.9779,-1.981,-1.9802,-1.9829,-1.9855,-1.9836,-1.9876,-1.9882,-1.9907,-1.9913,-1.9943,-1.9916,-1.9937,-1.9943,-1.9948,-1.9956,-1.9799,-1.9947,-1.9946,-1.9946,-1.9946,-1.9945,0,-1.9847,-1.9847,-1.9876,-1.9895,-1.9919,-1.9884,-1.9897,-1.9919,-1.9954,-1.9963,-1.9985,-2.0023,-2.0052,-2.0044,-2.0069,-2.0095,-2.0081,-2.0103,-2.0101,-2.0102,-1.9978,-1.9963,-2.0114,-2.0114,-2.0114,-2.0114,-2.0114,-2.0114,-1.9932,-1.9988,-1.9977,-2.0036,-2.0035,-2.0074,-2.0084,-2.0095,-2.0101,-2.0146,-2.0169,-2.0163,-2.0165,-2.019,-2.0214,-2.0211,-2.0222,-2.025,-2.0242,-2.0127,-2.011,-2.0095,-2.008,-2.0253,-2.0253,-2.0362,-2.0363,-2.0364]},{"header":{"parameterUnit":"m.s-1","parameterCategory":1,"la1":30.2991,"la2":30.254,"lo1":-89.0895,"lo2":-89.0444,"dy":0.0017,"dx":0.0017,"nx":28,"ny":28,"refTime":"2023-10-13T09:00:00:Z","depth":0,"parameterNumber":3,"parameterNumberName":"V-component_of_WINDS"},"data":[0,0,0,0,0,0,0,0,0,0,0,0,0,0,0,0,0,0,0,0,0,0,0,0,0,0,0,0,0,0,0,0,0,0,0,0,0,0,0,0,0,0,0,0,0,0,0,0,0,0,0,0,0,0,0,0,0,0,-2.7691,-2.7692,0,-2.7746,-2.7747,-2.7748,-2.7719,-2.7718,-2.7716,-2.7715,-2.777,-2.7772,-2.7775,0,0,0,0,0,0,0,0,0,0,0,0,0,-2.7558,-2.7561,-2.7691,-2.7692,-2.7693,-2.7746,-2.7747,-2.7748,-2.772,-2.7718,-2.7716,-2.7714,-2.7769,-2.7772,-2.7775,0,0,0,0,0,0,0,0,0,0,0,0,0,-2.7615,-2.7562,-2.7691,-2.7685,-2.7685,-2.7746,-2.7747,-2.7748,-2.772,-2.7718,-2.7716,-2.7714,-2.7768,-2.7772,-2.7776,-2.7845,0,0,-2.7789,-2.779,0,0,0,0,0,0,0,0,-2.7612,-2.762,-2.7685,-2.7686,-2.7686,-2.7724,-2.772,-2.7781,-2.7721,-2.7707,-2.7715,-2.7713,-2.7756,-2.7761,-2.7776,-2.7848,-2.785,-2.7789,-2.7792,-2.7793,-2.7794,0,0,0,0,0,0,0,-2.7608,-2.7617,-2.7713,-2.7686,-2.7686,-2.7679,-2.7684,-2.7731,-2.7743,-2.7708,-2.7706,-2.7713,-2.7756,-2.7772,-2.7777,-2.7851,-2.7789,-2.7793,-2.7795,-2.7797,-2.7981,-2.7983,0,0,0,0,0,0,-2.7605,-2.7614,-2.7711,-2.7715,-2.7643,-2.7683,-2.7689,-2.7714,-2.7742,-2.7744,-2.7715,-2.7711,-2.7766,-2.7772,-2.7779,-2.7861,-2.7793,-2.7797,-2.78,-2.7978,-2.7981,-2.7984,0,0,0,0,0,0,-2.7602,-2.7614,-2.7709,-2.7664,-2.7675,-2.7687,-2.7715,-2.7716,-2.7732,-2.7747,-2.7749,-2.773,-2.7764,-2.7773,-2.7829,-2.7863,-2.7799,-2.7803,-2.7976,-2.7979,-2.7983,-2.8027,0,0,0,0,0,0,-2.7598,-2.7613,-2.764,-2.7665,-2.7678,-2.7759,-2.7717,-2.7719,-2.774,-2.7736,-2.7762,-2.7764,-2.7763,-2.7823,-2.7833,-2.7867,-2.7806,-2.7973,-2.7977,-2.7981,-2.8022,-2.8032,-2.8039,0,0,0,0,0,-2.7594,-2.765,-2.7642,-2.7654,-2.7713,-2.7761,-2.7769,-2.7767,-2.7743,-2.777,-2.7779,-2.7763,-2.7857,-2.7829,-2.784,-2.7876,-2.797,-2.7976,-2.7981,-2.8019,-2.803,-2.8039,0,0,0,0,0,0,-2.7629,-2.7653,-2.7644,-2.7711,-2.7734,-2.7756,-2.779,-2.7779,-2.7809,-2.7805,-2.7801,-2.7807,-2.7865,-2.7876,-2.7843,-2.7944,-2.791,-2.7918,-2.7935,-2.7945,-2.7954,-2.7949,-2.781,0,0,0,0,0,-2.7645,-2.7683,-2.7702,-2.7759,-2.7771,-2.7779,-2.78,-2.7797,-2.782,-2.783,-2.7843,-2.7866,-2.7901,-2.7924,-2.7956,-2.8024,-2.8028,-2.8054,-2.8063,-2.8069,-2.8076,-2.8111,-2.8122,-2.8001,-2.8001,-2.8001,0,0,-2.7677,-2.7695,-2.7719,-2.7766,-2.7784,-2.7822,-2.7787,-2.783,-2.7858,-2.7836,-2.789,-2.79,-2.7925,-2.7987,-2.8015,-2.7998,-2.8111,-2.8076,-2.8082,-2.8085,-2.8118,-2.8129,-2.8139,-2.8005,-2.8004,-2.8004,0,0,-2.7756,-2.7774,-2.7823,-2.7841,-2.7868,-2.7873,-2.7885,-2.7909,-2.7915,-2.7969,-2.7953,-2.7985,-2.8046,-2.8064,-2.8081,-2.8165,-2.8151,-2.8176,-2.822,-2.8254,-2.8263,-2.8272,-2.8301,-2.8311,-2.8183,-2.8183,-2.8183,0,-2.7793,-2.7851,-2.7849,-2.7893,-2.7913,-2.7895,-2.7944,-2.7962,-2.7998,-2.8012,-2.7993,-2.8067,-2.8083,-2.8148,-2.8168,-2.8183,-2.8195,-2.8173,-2.8262,-2.8271,-2.8279,-2.8306,-2.8317,-2.8185,-2.8185,-2.8185,-2.8185,0,-2.7894,-2.7935,-2.7971,-2.8007,-2.8031,-2.8077,-2.8081,-2.8105,-2.81,-2.8106,-2.816,-2.8178,-2.8214,-2.8229,-2.8224,-2.8293,-2.8282,-2.8263,-2.8228,-2.8293,-2.8319,-2.8329,-2.8189,-2.8188,-2.8188,-2.8187,0,0,-2.7997,-2.8031,-2.8044,-2.806,-2.8088,-2.8119,-2.8163,-2.8198,-2.8219,-2.8244,-2.828,-2.8331,-2.8313,-2.8333,-2.8329,-2.836,-2.8424,-2.8337,-2.8337,-2.8351,-2.8499,-2.8513,-2.8525,-2.8415,-2.8417,-2.8418,-2.8497,0,-2.8077,-2.8156,-2.8155,-2.8227,-2.8264,-2.8247,-2.8285,-2.8306,-2.8313,-2.8344,-2.8351,-2.8387,-2.8361,-2.8372,-2.8402,-2.841,-2.8453,-2.8404,-2.8447,-2.8449,-2.8441,-2.8539,-2.8554,-2.8627,-2.8507,-2.8509,-2.851,0,-2.8182,-2.8211,-2.8287,-2.8308,-2.8323,-2.8358,-2.8389,-2.842,-2.8443,-2.8445,-2.8466,-2.8458,-2.8502,-2.8466,-2.8526,-2.8492,-2.851,-2.8516,-2.8519,-2.8523,-2.8483,-2.8544,-2.865,-2.8661,-2.8526,-2.8525,-2.8524,0,-2.8248,-2.8306,-2.8358,-2.8372,-2.8399,-2.8424,-2.8436,-2.8457,-2.8477,-2.8504,-2.8518,-2.8549,-2.8567,-2.8591,-2.8591,-2.8565,-2.865,-2.8615,-2.8653,-2.8653,-2.8671,-2.867,-2.8781,-2.8683,-2.8683,-2.8683,-2.8683,0,-2.8337,-2.8384,-2.8388,-2.8421,-2.8472,-2.847,-2.8521,-2.853,-2.8549,-2.8581,-2.8569,-2.86,-2.8598,-2.8629,-2.8629,-2.8678,-2.8686,-2.8688,-2.8687,-2.8689,-2.8689,-2.87,-2.8695,-2.8686,-2.8685,-2.8685,-2.8684,0,-2.842,-2.8425,-2.8481,-2.8502,-2.8508,-2.8545,-2.8562,-2.8592,-2.8597,-2.8639,-2.8649,-2.8657,-2.8692,-2.8695,-2.8736,-2.8736,-2.8794,-2.8789,-2.8787,-2.8786,-2.8823,-2.8819,-2.8944,-2.896,-2.8853,-2.8854,-2.8855,0,-2.8476,-2.8512,-2.8536,-2.8558,-2.8571,-2.8606,-2.8627,-2.8626,-2.8648,-2.8676,-2.8702,-2.8737,-2.8764,-2.8822,-2.8831,-2.8862,-2.8856,-2.8898,-2.8861,-2.8861,-2.8856,-2.8853,-2.8856,-2.8905,-2.8906,-2.8907,-2.8908,0,-2.8575,-2.8576,-2.8607,-2.8639,-2.8664,-2.8689,-2.8713,-2.8731,-2.8732,-2.8757,-2.8794,-2.8815,-2.8857,-2.8891,-2.8921,-2.8932,-2.892,-2.892,-2.893,-2.8931,-2.8929,-2.893,-2.8806,-2.8917,-2.8916,-2.8915,-2.8915,-2.8914,-2.8646,-2.8676,-2.8698,-2.8733,-2.875,-2.8772,-2.8801,-2.8809,-2.884,-2.8875,-2.8872,-2.8912,-2.8932,-2.8971,-2.8985,-2.9015,-2.9001,-2.9016,-2.902,-2.9023,-2.9027,-2.8924,-2.9021,-2.9021,-2.9021,-2.902,-2.902,0,-2.8743,-2.8756,-2.8788,-2.8821,-2.8848,-2.8835,-2.8859,-2.8883,-2.8918,-2.8939,-2.8966,-2.9007,-2.904,-2.9051,-2.9082,-2.9105,-2.91,-2.9113,-2.9111,-2.9113,-2.9038,-2.9026,-2.9116,-2.9116,-2.9116,-2.9116,-2.9116,-2.9116,-2.8797,-2.8848,-2.885,-2.8909,-2.8921,-2.8961,-2.8976,-2.8995,-2.9011,-2.9058,-2.9085,-2.9092,-2.9109,-2.9141,-2.917,-2.9172,-2.9184,-2.9199,-2.9199,-2.9129,-2.9119,-2.911,-2.9098,-2.9202,-2.9202,-2.9271,-2.9272,-2.9273]}]]